K0JSC-13 Weather Reports


Display with metric or nautical units.
time (UTC)temp
F
wind
direction
speed
MPH
gust
MPH
rain 1hr
in
rain 24hr
in
rain mn
in
humidity
%
barometer
mb
20260901190003 84 278 4.0 12.0 0.00 0.00 0.00 29 991.6
20260901185616 84 259 4.0 12.0 0.00 0.00 0.00 32 991.6
20260901184503 83 306 2.0 5.0 0.00 0.00 0.00 35 991.8
20260901183603 83 254 3.0 12.0 0.00 0.00 0.00 34 992.0
20260901182703 83 308 3.0 9.0 0.00 0.00 0.00 34 992.0
20260901182018 83 285 3.0 9.0 0.00 0.00 0.00 36 992.1
20260901180904 82 270 4.0 8.0 0.00 0.00 0.00 36 992.4
20260901180003 82 226 5.0 14.0 0.00 0.00 0.00 36 992.5
20260901175403 82 242 4.0 11.0 0.00 0.00 0.00 38 992.6
20260901174717 81 244 5.0 13.0 0.00 0.00 0.00 42 992.8
20260901173603 81 247 6.0 12.0 0.00 0.00 0.00 37 993.0
20260901172918 80 264 5.0 12.0 0.00 0.00 0.00 39 993.1
20260901172017 80 300 3.0 10.0 0.00 0.00 0.00 44 993.2
20260901171116 79 309 5.0 11.0 0.00 0.00 0.00 44 993.4
20260901170004 78 287 3.0 10.0 0.00 0.00 0.00 46 993.5
20260901165403 78 281 4.0 11.0 0.00 0.00 0.00 45 993.6
20260901164717 77 293 3.0 10.0 0.00 0.00 0.00 48 993.8
20260901163603 75 303 6.0 13.0 0.00 0.00 0.00 50 993.9
20260901162917 74 308 5.0 12.0 0.00 0.00 0.00 53 994.0
20260901161803 73 311 4.0 10.0 0.00 0.00 0.00 54 994.0
20260901160903 72 299 5.0 13.0 0.00 0.00 0.00 53 994.0
20260901160003 71 299 5.0 14.0 0.00 0.00 0.00 55 994.1
20260901155404 71 309 3.0 9.0 0.00 0.00 0.00 59 994.1
20260901154503 70 319 3.0 6.0 0.00 0.00 0.00 60 994.1
20260901153603 69 307 4.0 10.0 0.00 0.00 0.00 61 994.0
20260901152703 68 314 4.0 10.0 0.00 0.00 0.00 61 994.1
20260901151803 67 343 4.0 10.0 0.00 0.00 0.00 64 994.1
20260901150903 66 321 2.0 9.0 0.00 0.00 0.00 68 994.1
20260901150003 66 310 3.0 10.0 0.00 0.00 0.00 68 994.2
20260901145617 66 310 2.0 10.0 0.00 0.00 0.00 67 994.2
20260901144504 66 323 1.0 3.0 0.00 0.00 0.00 68 994.2
20260901143603 65 322 0.0 3.0 0.00 0.00 0.00 68 994.1
20260901142703 65 322 2.0 5.0 0.00 0.00 0.00 69 994.1
20260901141804 65 318 4.0 7.0 0.00 0.00 0.00 70 993.9
20260901140903 65 310 4.0 10.0 0.00 0.00 0.00 71 993.9
20260901140003 64 296 2.0 7.0 0.00 0.00 0.00 71 993.9
20260901135403 64 299 2.0 8.0 0.00 0.00 0.00 72 993.9
20260901134503 64 317 4.0 8.0 0.00 0.00 0.00 71 993.8
20260901133604 64 312 4.0 9.0 0.00 0.00 0.00 72 993.7
20260901132703 64 303 4.0 10.0 0.00 0.00 0.00 72 993.7
20260901131803 63 308 5.0 10.0 0.00 0.00 0.00 74 993.6
20260901130903 63 306 4.0 9.0 0.00 0.00 0.00 75 993.3
20260901130003 63 306 3.0 8.0 0.00 0.00 0.00 76 993.1
20260901125403 63 306 2.0 7.0 0.00 0.00 0.00 76 993.2
20260901124717 63 296 1.0 7.0 0.00 0.00 0.00 76 993.3
20260901123817 63 313 3.0 10.0 0.00 0.00 0.00 76 993.0
20260901122704 62 316 6.0 10.0 0.00 0.00 0.00 77 992.9
20260901121803 62 314 5.0 9.0 0.00 0.00 0.00 79 992.8
20260901120903 61 317 4.0 9.0 0.00 0.00 0.00 81 992.8
20260901120003 60 313 1.0 4.0 0.00 0.00 0.00 83 992.9
20260901115403 60 310 0.0 2.0 0.00 0.00 0.00 83 992.7
20260901114503 60 310 1.0 3.0 0.00 0.00 0.00 83 992.8
20260901113603 61 308 2.0 5.0 0.00 0.00 0.00 83 992.7
20260901112918 61 316 1.0 4.0 0.00 0.00 0.00 84 992.7
20260901111804 61 327 0.0 2.0 0.00 0.00 0.00 83 992.7
20260901110903 61 327 1.0 3.0 0.00 0.00 0.00 83 992.8
20260901110003 61 348 2.0 5.0 0.00 0.00 0.00 83 992.9
20260901105403 61 8 1.0 4.0 0.00 0.00 0.00 84 992.9
20260901104503 61 10 1.0 2.0 0.00 0.00 0.00 84 993.0
20260901103818 62 10 1.0 2.0 0.00 0.00 0.00 84 993.2
20260901102917 62 10 1.0 2.0 0.00 0.00 0.00 83 993.3
20260901102017 62 0 0.0 0.0 0.00 0.00 0.00 82 993.4
20260901100904 62 10 1.0 2.0 0.00 0.00 0.00 82 993.4
20260901100003 63 10 0.0 1.0 0.00 0.00 0.00 81 993.2
20260901095617 63 10 1.0 3.0 0.00 0.00 0.00 80 993.3
20260901094503 63 9 0.0 3.0 0.00 0.00 0.00 79 993.3
20260901093817 64 9 0.0 2.0 0.00 0.00 0.00 77 993.3
20260901092703 64 9 0.0 2.0 0.00 0.00 0.00 75 994.0
20260901091803 64 9 0.0 2.0 0.00 0.00 0.00 73 993.9
20260901091118 64 9 1.0 3.0 0.00 0.00 0.00 73 993.7
20260901090004 64 9 0.0 2.0 0.00 0.00 0.00 73 993.5
20260901085403 64 9 0.0 2.0 0.00 0.00 0.00 73 993.4
20260901084503 64 314 1.0 3.0 0.00 0.00 0.00 72 993.5
20260901083603 65 256 2.0 4.0 0.00 0.00 0.00 72 993.6
20260901082703 65 177 1.0 4.0 0.00 0.00 0.00 70 993.7
20260901081803 65 106 2.0 4.0 0.00 0.00 0.00 70 993.4
20260901080903 65 76 1.0 3.0 0.00 0.00 0.00 69 993.8
20260901080004 65 32 2.0 5.0 0.00 0.00 0.00 70 993.8
20260901075404 65 321 4.0 9.0 0.00 0.00 0.00 70 993.8
20260901074503 64 316 3.0 9.0 0.00 0.00 0.00 71 993.6
20260901073817 64 346 1.0 4.0 0.00 0.00 0.00 73 993.7
20260901072703 63 326 1.0 5.0 0.00 0.00 0.00 74 993.5
20260901071803 64 304 1.0 5.0 0.00 0.00 0.00 74 993.5
20260901071117 64 307 1.0 4.0 0.00 0.00 0.00 73 993.5
20260901070003 64 306 4.0 7.0 0.00 0.00 0.00 72 993.4
20260901065403 65 311 3.0 7.0 0.00 0.00 0.00 72 993.2
20260901064504 65 318 3.0 6.0 0.00 0.00 0.00 71 993.3
20260901063603 65 322 3.0 5.0 0.00 0.00 0.00 70 993.3
20260901062703 65 318 4.0 8.0 0.00 0.00 0.00 70 993.4
20260901062017 65 317 4.0 9.0 0.00 0.00 0.00 70 993.4
20260901060903 65 349 4.0 8.0 0.00 0.00 0.00 70 993.2
20260901060006 64 76 1.0 4.0 0.00 0.00 0.00 74 993.2
20260901055403 64 81 0.0 3.0 0.00 0.00 0.00 73 993.3
20260901054503 65 85 0.0 1.0 0.00 0.00 0.00 71 993.3
20260901053604 65 71 0.0 3.0 0.00 0.00 0.00 72 993.2
20260901052703 66 78 3.0 8.0 0.00 0.00 0.00 70 993.3
20260901051803 66 80 2.0 7.0 0.00 0.00 0.00 72 993.2
20260901051118 65 79 2.0 7.0 0.00 0.00 0.00 71 993.3
20260901050217 65 81 1.0 7.0 0.00 0.00 0.00 72 993.2
20260901045403 65 76 0.0 3.0 0.00 0.00 0.00 73 993.2
20260901044505 65 77 0.0 3.0 0.00 0.00 0.00 73 993.3
20260901043603 65 73 0.0 1.0 0.00 0.00 0.00 72 993.4
20260901042704 65 74 0.0 3.0 0.00 0.00 0.00 72 993.3
20260901041803 65 75 0.0 3.0 0.00 0.00 0.00 73 993.4
20260901041118 65 79 0.0 1.0 0.00 0.00 0.00 74 993.6
20260901040217 65 79 0.0 1.0 0.00 0.00 0.00 74 993.3
20260901035403 66 0 0.0 0.0 0.00 0.00 0.00 72 993.4
20260901034503 66 0 0.0 0.0 0.00 0.00 0.00 70 993.3
20260901033603 66 0 0.0 0.0 0.00 0.00 0.00 71 993.4
20260901032703 66 77 1.0 4.0 0.00 0.00 0.00 70 993.2
20260901031804 67 73 2.0 7.0 0.00 0.00 0.00 69 993.3
20260901030903 67 77 4.0 10.0 0.00 0.00 0.00 68 992.9
20260901030217 67 77 4.0 8.0 0.00 0.00 0.00 69 992.8
20260901025403 67 78 3.0 8.0 0.00 0.00 0.00 70 992.7
20260901024503 67 73 7.0 12.0 0.00 0.00 0.00 69 992.9
20260901023603 67 74 9.0 15.0 0.00 0.00 0.00 69 993.2
20260901022916 67 74 9.0 14.0 0.00 0.00 0.00 72 992.9
20260901021803 66 74 8.0 13.0 0.00 0.00 0.00 72 992.4
20260901020904 66 69 7.0 13.0 0.00 0.00 0.00 73 992.5
20260901020003 66 75 7.0 11.0 0.00 0.00 0.00 75 992.2
20260901015403 66 76 6.0 11.0 0.00 0.00 0.00 76 992.3
20260901014503 67 80 5.0 11.0 0.00 0.00 0.00 73 992.7
20260901013603 70 314 9.0 22.0 0.00 0.00 0.00 54 992.7
20260901012703 76 294 7.0 19.0 0.00 0.00 0.00 50 992.3
20260901012017 77 306 6.0 15.0 0.00 0.00 0.00 45 991.5
20260901011117 78 203 2.0 5.0 0.00 0.00 0.00 42 991.2
20260901010004 79 139 2.0 5.0 0.00 0.00 0.00 39 990.7
20260901005617 79 138 4.0 7.0 0.00 0.00 0.00 38 990.6
20260901004503 80 137 4.0 9.0 0.00 0.00 0.00 38 990.2
20260901003603 80 135 6.0 11.0 0.00 0.00 0.00 38 990.1
20260901002917 81 132 7.0 12.0 0.00 0.00 0.00 37 990.2
20260901001803 81 128 7.0 12.0 0.00 0.00 0.00 36 990.2
20260901000903 82 130 6.0 12.0 0.00 0.00 0.00 36 990.2
20260901000218 82 132 8.0 12.0 0.00 0.00 0.00 35 990.2
20260831235617 82 134 8.0 15.0 0.00 0.00 0.00 35 990.2
20260831234503 83 136 8.0 14.0 0.00 0.00 0.00 33 990.2
20260831233603 83 132 8.0 17.0 0.00 0.00 0.00 34 990.0
20260831232703 83 118 6.0 11.0 0.00 0.00 0.00 32 990.0
20260831231803 84 135 6.0 12.0 0.00 0.00 0.00 33 990.3
20260831230903 84 138 5.0 12.0 0.00 0.00 0.00 32 990.5
20260831230003 85 137 5.0 12.0 0.00 0.00 0.00 32 990.7
20260831225403 85 134 6.0 13.0 0.00 0.00 0.00 32 990.9
20260831224504 85 136 5.0 9.0 0.00 0.00 0.00 32 991.0
20260831223603 85 143 5.0 10.0 0.00 0.00 0.00 32 991.0
20260831222703 84 139 5.0 9.0 0.00 0.00 0.00 34 991.1
20260831221803 84 131 5.0 8.0 0.00 0.00 0.00 33 991.3
20260831220903 84 89 2.0 6.0 0.00 0.00 0.00 32 991.5
20260831220003 84 12 0.0 2.0 0.00 0.00 0.00 32 991.6
20260831215403 84 12 1.0 4.0 0.00 0.00 0.00 33 991.4
20260831214503 84 337 3.0 6.0 0.00 0.00 0.00 33 991.5
20260831213604 85 315 3.0 10.0 0.00 0.00 0.00 30 991.7
20260831212703 85 308 4.0 10.0 0.00 0.00 0.00 32 991.8
20260831211803 85 303 1.0 4.0 0.00 0.00 0.00 32 992.2
20260831210903 85 301 1.0 4.0 0.00 0.00 0.00 31 992.4
20260831210003 85 291 2.0 6.0 0.00 0.00 0.00 32 992.5
20260831205403 85 295 2.0 6.0 0.00 0.00 0.00 30 992.5
20260831204717 84 35 1.0 4.0 0.00 0.00 0.00 31 992.7
20260831203603 83 358 4.0 11.0 0.00 0.00 0.00 32 992.8
20260831202704 83 3 2.0 6.0 0.00 0.00 0.00 32 992.8
20260831202017 83 339 3.0 9.0 0.00 0.00 0.00 32 993.0
20260831200903 82 336 4.0 10.0 0.00 0.00 0.00 32 993.3
20260831200218 82 330 5.0 10.0 0.00 0.00 0.00 35 993.4
20260831195618 82 326 5.0 10.0 0.00 0.00 0.00 37 993.5
20260831194503 81 325 4.0 8.0 0.00 0.00 0.00 37 993.6
20260831193816 80 294 3.0 8.0 0.00 0.00 0.00 40 993.8
20260831192703 80 292 3.0 8.0 0.00 0.00 0.00 39 994.0
20260831191804 79 282 4.0 8.0 0.00 0.00 0.00 44 994.2
20260831190903 78 278 4.0 8.0 0.00 0.00 0.00 42 994.3